FW4043 Weather Reports


Display with metric or nautical units.
time (UTC)temp
F
wind
direction
speed
MPH
gust
MPH
rain 1hr
in
rain 24hr
in
rain mn
in
humidity
%
barometer
mb
20260507210018 76 52 7.0 13.0 0.00 0.00 0.00 82 1015.1
20260507204519 76 48 6.0 11.0 0.00 0.00 0.00 83 1015.4
20260507203028 75 46 5.0 9.0 0.00 0.00 0.00 83 1015.4
20260507201517 74 40 7.0 9.0 0.00 0.00 0.00 83 1015.4
20260507200045 74 74 5.0 9.0 0.00 0.00 0.00 83 1015.6
20260507194531 73 21 7.0 10.0 0.00 0.00 0.00 84 1015.9
20260507193044 73 29 8.0 12.0 0.00 0.00 0.00 84 1016.1
20260507191538 72 40 6.0 11.0 0.00 0.00 0.00 84 1016.3
20260507190051 71 41 8.0 13.0 0.00 0.00 0.00 84 1016.5
20260507184558 71 46 6.0 11.0 0.00 0.00 0.00 85 1016.7
20260507184504 71 68 5.0 11.0 0.00 0.00 0.00 85 1016.7
20260507183008 71 51 8.0 11.0 0.00 0.00 0.00 85 1016.8
20260507181512 70 30 5.0 14.0 0.00 0.00 0.00 85 1016.8
20260507180016 69 5 6.0 12.0 0.00 0.00 0.00 86 1016.9
20260507174520 68 45 6.0 12.0 0.00 0.00 0.00 86 1017.2
20260507173017 68 11 6.0 12.0 0.00 0.00 0.00 86 1017.4
20260507171518 66 38 6.0 10.0 0.00 0.00 0.00 86 1017.6
20260507170022 66 329 5.0 8.0 0.00 0.00 0.00 87 1017.7
20260507164524 66 69 6.0 9.0 0.00 0.00 0.00 87 1017.5
20260507163032 66 46 6.0 10.0 0.00 0.00 0.00 87 1017.3
20260507161550 65 12 7.0 12.0 0.00 0.00 0.00 87 1017.3
20260507160042 65 18 5.0 11.0 0.00 0.00 0.00 87 1017.4
20260507154546 65 34 6.0 10.0 0.00 0.00 0.00 87 1017.1
20260507153107 65 50 7.0 12.0 0.00 0.00 0.00 87 1017.0
20260507151557 66 12 6.0 9.0 0.00 0.00 0.00 87 1017.3
20260507150107 66 32 5.0 9.0 0.00 0.00 0.00 87 1017.3
20260507144505 66 348 6.0 15.0 0.00 0.00 0.00 87 1017.4
20260507143012 66 38 5.0 10.0 0.00 0.00 0.00 87 1017.1
20260507141512 66 54 6.0 14.0 0.00 0.00 0.00 87 1016.9
20260507140013 66 11 9.0 16.0 0.00 0.00 0.00 87 1016.4
20260507134516 66 28 8.0 18.0 0.00 0.00 0.00 87 1016.1
20260507133016 67 9 7.0 16.0 0.00 0.00 0.00 87 1016.6
20260507131525 68 360 7.0 12.0 0.00 0.00 0.00 87 1016.9
20260507130019 68 350 5.0 10.0 0.00 0.00 0.00 87 1016.8
20260507124523 68 24 6.0 11.0 0.00 0.00 0.00 87 1016.6
20260507123030 68 18 2.0 9.0 0.00 0.00 0.00 87 1016.7
20260507121538 68 25 5.0 10.0 0.00 0.00 0.00 87 1016.0
20260507120038 68 42 7.0 12.0 0.00 0.00 0.00 87 1015.6
20260507114537 68 24 5.0 8.0 0.00 0.00 0.00 87 1015.7
20260507113038 68 22 6.0 10.0 0.00 0.00 0.00 87 1015.4
20260507111550 68 30 5.0 9.0 0.00 0.00 0.00 87 1015.2
20260507110054 68 51 6.0 10.0 0.00 0.00 0.00 87 1015.1
20260507104559 68 33 2.0 11.0 0.00 0.00 0.00 87 1015.2
20260507104502 68 33 2.0 11.0 0.00 0.00 0.00 87 1015.2
20260507103003 68 25 6.0 10.0 0.00 0.00 0.00 86 1015.0
20260507101507 68 355 5.0 9.0 0.00 0.00 0.00 86 1015.0
20260507100021 68 44 4.0 8.0 0.00 0.00 0.00 86 1014.7
20260507094520 68 32 6.0 9.0 0.00 0.00 0.00 86 1014.3
20260507093023 68 46 6.0 10.0 0.00 0.00 0.00 86 1014.4
20260507091523 68 34 6.0 12.0 0.00 0.00 0.00 86 1014.4
20260507090031 69 26 6.0 12.0 0.00 0.00 0.00 86 1014.3
20260507084544 69 349 8.0 11.0 0.00 0.00 0.00 86 1014.4
20260507083054 69 9 6.0 11.0 0.00 0.00 0.00 86 1014.3
20260507081552 69 355 7.0 12.0 0.00 0.00 0.00 86 1014.0
20260507080049 69 17 7.0 13.0 0.00 0.00 0.00 86 1014.2
20260507074548 70 360 6.0 10.0 0.00 0.00 0.00 86 1014.4
20260507073101 70 348 7.0 11.0 0.00 0.00 0.00 86 1014.4
20260507071503 70 5 8.0 12.0 0.00 0.00 0.00 86 1014.7
20260507070010 70 342 7.0 12.0 0.00 0.00 0.00 86 1014.8
20260507064511 71 355 7.0 11.0 0.00 0.00 0.00 86 1014.5
20260507063012 71 346 8.0 14.0 0.00 0.00 0.00 86 1014.4
20260507061519 72 335 7.0 13.0 0.00 0.00 0.00 86 1014.4
20260507060014 72 328 7.0 12.0 0.00 0.00 0.00 86 1014.3
20260507054510 72 360 6.0 11.0 0.00 0.00 0.00 86 1014.1
20260507053011 72 336 8.0 12.0 0.00 0.00 0.00 86 1014.1
20260507051519 72 344 8.0 12.0 0.00 0.00 0.00 86 1013.9
20260507050032 72 5 9.0 12.0 0.00 0.00 0.00 86 1014.1
20260507044516 72 323 7.0 12.0 0.00 0.00 0.00 86 1014.1
20260507043020 73 355 6.0 12.0 0.00 0.00 0.00 86 1013.9
20260507041530 73 340 9.0 13.0 0.00 0.00 0.00 86 1014.0
20260507040028 73 5 9.0 15.0 0.00 0.00 0.00 86 1014.1
20260507034530 74 351 10.0 15.0 0.00 0.00 0.00 86 1013.9
20260507033033 74 360 9.0 15.0 0.00 0.00 0.00 87 1013.4
20260507031530 74 333 10.0 13.0 0.00 0.00 0.00 87 1013.3
20260507030028 75 329 9.0 15.0 0.00 0.00 0.00 87 1012.9
20260507024527 76 338 10.0 14.0 0.00 0.00 0.00 87 1012.5
20260507023029 76 324 7.0 11.0 0.00 0.00 0.00 88 1012.2
20260507021529 77 344 8.0 14.0 0.00 0.00 0.00 88 1012.1
20260507020030 78 355 10.0 15.0 0.00 0.00 0.00 88 1011.8
20260507014544 79 170 3.0 6.0 0.00 0.00 0.00 90 1011.6
20260507013048 79 138 2.0 6.0 0.00 0.00 0.00 89 1011.3
20260507011551 80 117 6.0 8.0 0.00 0.00 0.00 89 1011.0
20260507010057 80 174 6.0 9.0 0.00 0.00 0.00 89 1010.8
20260507004517 81 150 5.0 7.0 0.00 0.00 0.00 89 1010.6
20260507003006 81 146 6.0 10.0 0.00 0.00 0.00 89 1010.5
20260507001513 81 164 4.0 7.0 0.00 0.00 0.00 89 1010.5
20260507000024 81 145 5.0 8.0 0.00 0.00 0.00 88 1010.4
20260506234534 82 142 7.0 10.0 0.00 0.00 0.00 88 1010.2
20260506233025 82 144 6.0 12.0 0.00 0.00 0.00 88 1010.1
20260506231534 82 161 8.0 11.0 0.00 0.00 0.00 88 1010.2
20260506230032 82 157 6.0 12.0 0.00 0.00 0.00 88 1010.1
20260506224532 82 164 6.0 15.0 0.00 0.00 0.00 88 1010.0
20260506223046 82 192 6.0 18.0 0.00 0.00 0.00 87 1009.9
20260506221536 83 180 7.0 15.0 0.00 0.00 0.00 87 1009.8
20260506220039 84 155 8.0 13.0 0.00 0.00 0.00 86 1009.7
20260506214549 84 184 5.0 12.0 0.00 0.00 0.00 87 1009.8
20260506213113 84 153 6.0 10.0 0.00 0.00 0.00 86 1009.9
20260506211510 84 184 3.0 9.0 0.00 0.00 0.00 87 1010.0